This demonstration page uses our WeatherBlox Daily Observations layout. Learn more.

Left ArrowRight Arrow

34.16533, -84.80231

Hourly Observations for February 13, 2015

Temp ( °F °C ) Dew Point ( °F °C ) Humidity (%) Winds ( mph kmh ) Pressure ( in mb ) Visibility ( mi km ) Precip ( " mm )
12:53 am 00:53 Clear 26 -3.3 9 -12.8 48 48 VRB 3 6 30.28 1025 10 16 0.00 0.00
1:53 am 01:53 Clear 26 -3.3 10 -12.2 51 51 N 7 11 30.28 1026 10 16 0.00 0.00
2:53 am 02:53 Clear 26 -3.3 10 -12.2 51 51 NNW 6 9 30.28 1026 10 16 0.00 0.00
3:53 am 03:53 Clear 25 -3.9 9 -12.8 50 50 NNW 6 9 30.30 1026 10 16 0.00 0.00
4:53 am 04:53 Clear 25 -3.9 9 -12.8 50 50 N 9 15 30.30 1026 10 16 0.00 0.00
5:53 am 05:53 Clear 25 -3.9 9 -12.8 50 50 NNE 7 11 30.29 1026 10 16 0.00 0.00
6:53 am 06:53 Clear 24 -4.4 9 -12.8 52 52 N 7 11 30.30 1026 10 16 0.00 0.00
7:53 am 07:53 Partly Cloudy 24 -4.4 9 -12.8 52 52 NNW 8 13 30.32 1027 10 16 0.00 0.00
8:53 am 08:53 Mostly Sunny 26 -3.3 9 -12.8 48 48 N 6 9 30.35 1028 10 16 0.00 0.00
9:53 am 09:53 Mostly Sunny 27 -2.8 10 -12.2 49 49 N 7 11 30.35 1028 10 16 0.00 0.00
10:53 am 10:53 Mostly Sunny 30 -1.1 11 -11.7 45 45 VRB 3 6 30.35 1028 10 16 0.00 0.00
11:53 am 11:53 Sunny 32 0 10 -12.2 40 40 VRB 3 6 30.32 1027 10 16 0.00 0.00
12:53 pm 12:53 Sunny 36 2.2 8 -13.3 31 31 NNW 6 9 30.29 1026 10 16 0.00 0.00
1:53 pm 13:53 Sunny 39 3.9 7 -13.9 26 26 VRB 7 11 30.25 1024 10 16 0.00 0.00
2:53 pm 14:53 Sunny 42 5.6 5 -15 21 21 N 8 13 30.24 1024 10 16 0.00 0.00
3:53 pm 15:53 Sunny 42 5.6 4 -15.6 20 20 VRB 5 7 30.22 1023 10 16 0.00 0.00
4:53 pm 16:53 Sunny 41 5 5 -15 22 22 VRB 3 6 30.21 1023 10 16 0.00 0.00
5:53 pm 17:53 Sunny 39 3.9 3 -16.1 22 22 Calm 30.20 1023 10 16 0.00 0.00
6:53 pm 18:53 Clear 34 1.1 10 -12.2 37 37 Calm 30.22 1023 10 16 0.00 0.00
7:53 pm 19:53 Clear 30 -1.1 10 -12.2 43 43 Calm 30.22 1023 10 16 0.00 0.00
8:53 pm 20:53 Clear 28 -2.2 11 -11.7 49 49 Calm 30.21 1023 10 16 0.00 0.00
9:53 pm 21:53 Clear 27 -2.8 13 -10.6 55 55 Calm 30.21 1023 10 16 0.00 0.00
10:53 pm 22:53 Clear 28 -2.2 14 -10 56 56 Calm 30.22 1023 10 16 0.00 0.00
11:53 pm 23:53 Clear 27 -2.8 14 -10 58 58 Calm 30.22 1023 10 16 0.00 0.00

Powered by AerisWeather